This is the latest recevied weather packets stored in our database for station/object KL4TQ. If no packets are shown the sender has not sent any weather packets the latest 10 day(s).
| Time | Temp. | Humidity | Pressure | Rain* | Wind** | Luminosity | Snow |
|---|---|---|---|---|---|---|---|
| 1777827069 | 4.44° C | 71% | 857 hPa | 0 mm | - | 306 W/m² | - |
| 1777826768 | 4.44° C | 71% | 857 hPa | 0 mm | - | 295 W/m² | - |
| 1777826468 | 4.44° C | 72% | 857 hPa | 0 mm | - | 284 W/m² | - |
| 1777826168 | 5° C | 71% | 857 hPa | 0 mm | - | 273 W/m² | - |
| 1777825868 | 5° C | 69% | 857 hPa | 0 mm | - | 261 W/m² | - |
| 1777825570 | 5° C | 70% | 857 hPa | 0 mm | - | 249 W/m² | - |
| 1777825269 | 4.44° C | 70% | 857 hPa | 0 mm | - | 239 W/m² | - |
| 1777824969 | 4.44° C | 70% | 857 hPa | 0 mm | - | 229 W/m² | - |
| 1777824668 | 4.44° C | 71% | 857 hPa | 0 mm | - | 220 W/m² | - |
| 1777824368 | 4.44° C | 71% | 857 hPa | 0 mm | - | 211 W/m² | - |
| 1777824068 | 4.44° C | 71% | 857 hPa | 0 mm | - | 201 W/m² | - |
| 1777823769 | 4.44° C | 71% | 857 hPa | 0 mm | - | 192 W/m² | - |
| 1777823469 | 4.44° C | 70% | 857 hPa | 0 mm | - | 180 W/m² | - |
| 1777823169 | 4.44° C | 72% | 856 hPa | 0 mm | - | 170 W/m² | - |
| 1777822869 | 3.89° C | 71% | 856 hPa | 0 mm | - | 161 W/m² | - |
| 1777822569 | 3.89° C | 72% | 856 hPa | 0 mm | - | 153 W/m² | - |
| 1777822269 | 3.33° C | 75% | 856 hPa | 0 mm | - | 143 W/m² | - |
| 1777821968 | 2.78° C | 76% | 856 hPa | 0 mm | - | 96 W/m² | - |
| 1777821668 | 2.78° C | 77% | 856 hPa | 0 mm | - | 66 W/m² | - |
| 1777821368 | 2.78° C | 76% | 856 hPa | 0 mm | - | 90 W/m² | - |
| 1777821069 | 2.78° C | 77% | 856 hPa | 0 mm | - | 59 W/m² | - |
| 1777820769 | 2.78° C | 76% | 856 hPa | 0 mm | - | 52 W/m² | - |
| 1777820468 | 2.78° C | 76% | 856 hPa | 0 mm | - | 50 W/m² | - |
| 1777820168 | 2.78° C | 76% | 856 hPa | 0 mm | - | 50 W/m² | - |
| 1777819869 | 2.78° C | 77% | 856 hPa | 0 mm | - | 52 W/m² | - |
* Rain latest hour (hover to see other rain measurements)
** Current wind speed in m/s (hover to see current wind gust speed)